{"data":{"norad_id":68348,"intl_designator":"2026-059AD","name":"STARLINK-37182","alt_names":[],"object_type":"PAYLOAD","status":"ACTIVE","operator":null,"country":"US","launch_date":"2026-03-22","launch_site_code":"AFETR","launch_vehicle":null,"mission":null,"orbit_class":"UNKNOWN","rcs_meters":null,"size_class":null,"mass_kg":null,"dimensions":null,"purposes":["comms"],"wikipedia_slug":null,"has_3d_model":false,"image_url":null,"decayed_at":null,"tle_current":{"epoch":"2026-09-20T00:14:56.965920Z","epoch_age_seconds":89643,"freshness":"FRESH","line1":"1 68348U 26059AD  26263.01038155  .00012909  00000+0  39252-3 0  9997","line2":"2 68348  53.1572 158.0734 0001431  66.1352 293.9801 15.34399703 28033","mean_motion":15.34399703,"eccentricity":0.0001431,"inclination_deg":53.1572,"raan_deg":158.0734,"arg_perigee_deg":66.1352,"mean_anomaly_deg":293.9801,"bstar":0.00039252,"rev_number":2803,"period_min":93.847776246604,"perigee_km":461.72519858914,"apogee_km":463.68304731853,"semimajor_km":6840.8411229538,"source":"CELESTRAK","updated_at":"2026-09-20T09:00:43.891177Z"}}}